Location: Arrington
(35.8681°N, 86.7092°W)
Time: 16:37:06
(UTC+00:00)

Cosmos 1328 Rocket - Pass Details

Date: 23 November 2019
Orbit: 600 x 628 km, 82.5° (Epoch: 07 December)

Event Time Altitude Azimuth Distance (km) Brightness Sun altitude
Exits shadow 10:58:32 41° 284° (WNW) 872 3.8 -18.5°
Maximum altitude 10:58:56 42° 268° (W) 854 3.8 -18.5°
Drops below altitude 10° 11:02:58 10° 197° (SSW) 1,935 6.1 -17.7°
Sets 11:05:15 0° 190° (S) 2,834 7.0 -17.2°
